This is the latest recevied weather packets stored in our database for station/object WB3EGK. If no packets are shown the sender has not sent any weather packets the latest 10 day(s).
| Time | Temp. | Humidity | Pressure | Rain* | Wind** | Luminosity | Snow |
|---|---|---|---|---|---|---|---|
| 1777471375 | 12.78° C | 1% | 1007.8 hPa | 0 mm | - | 108 W/m² | - |
| 1777471072 | 12.22° C | 1% | 1007.3 hPa | 0 mm | - | 165 W/m² | - |
| 1777470769 | 12.22° C | 1% | 1007.2 hPa | 0 mm | - | 139 W/m² | - |
| 1777470465 | 12.22° C | 1% | 1007.3 hPa | 0 mm | - | 168 W/m² | - |
| 1777470161 | 12.22° C | 1% | 1007.4 hPa | 0 mm | - | 173 W/m² | - |
| 1777469858 | 12.22° C | 1% | 1007.4 hPa | 0 mm | - | 212 W/m² | - |
| 1777469553 | 12.22° C | 1% | 1007.4 hPa | 0 mm | - | 218 W/m² | - |
| 1777469248 | 11.67° C | 1% | 1007.2 hPa | 0 mm | - | 238 W/m² | - |
| 1777468943 | 11.67° C | 1% | 1007.3 hPa | 0 mm | - | 201 W/m² | - |
| 1777468640 | 11.67° C | 1% | 1007.3 hPa | 0 mm | - | 187 W/m² | - |
| 1777468336 | 11.67° C | 1% | 1007.5 hPa | 0 mm | - | 121 W/m² | - |
| 1777468033 | 11.67° C | 1% | 1007.6 hPa | 1.27 mm | - | 80 W/m² | - |
| 1777467729 | 11.67° C | 1% | 1007.8 hPa | 3.05 mm | - | 62 W/m² | - |
| 1777467424 | 11.67° C | 1% | 1008.4 hPa | 4.83 mm | - | 37 W/m² | - |
| 1777467119 | 11.67° C | 1% | 1008.3 hPa | 3.05 mm | - | 24 W/m² | - |
| 1777466817 | 11.67° C | 1% | 1009.1 hPa | 0 mm | - | 16 W/m² | - |
| 1777466515 | 11.67° C | 1% | 1009.4 hPa | 0 mm | - | 8 W/m² | - |
| 1777466210 | 11.67° C | 1% | 1009 hPa | 0 mm | - | 10 W/m² | - |
| 1777465907 | 11.67° C | 1% | 1009.1 hPa | 0 mm | - | 12 W/m² | - |
| 1777465604 | 11.67° C | 1% | 1009.4 hPa | 0 mm | - | 17 W/m² | - |
* Rain latest hour (hover to see other rain measurements)
** Current wind speed in m/s (hover to see current wind gust speed)